Back to catalog

STARLINK-6225

AliveCommunicationsVLEO
NORAD 57092·PAYLOAD·🇺🇸 United States

Launched Jun 22, 2023 from Vandenberg Space Force Base

Loading…

Next Passes (next 24 hours)

TLE

FreshSource: CelesTrak SupGP

Epoch: Sep 15, 2026, 03:11 UTC

1 57092C 23088AW  26258.13312500  .00024368  00000+0  88261-3 0  2580
2 57092  43.0014 105.9864 0001723 275.3710 180.8271 15.27566264    10

Track STARLINK-6225 in real time with AllMySat

Download on the App Store